sat.trackr.live / text

‹ back to catalog

KUIPER-00034

NORAD 63747 · 2025-088Z

PAYLOAD ACTIVE UNKNOWN

§ Identity

Operator
Country
US
Launch date
2025-04-28
Launch site
AFETR
Launch vehicle
Mass (kg)
RCS (m²)

External: N2YO · Heavens-Above · Gunter

§ Orbital elements

Epoch: 2026-09-21T09:41:19.890816Z

Period
97.30 min
Inclination
51.9043°
Eccentricity
0.0000502
Mean motion
14.79913896 rev/d
Perigee alt
629.2 km
Apogee alt
629.9 km
Semi-major
7,007.7 km
B*
9.1198e-5
RAAN
302.6771°
Arg perigee
86.0144°
Mean anomaly
274.0876°
Rev number
7,680

§ Raw data

KUIPER-000341 63747U 25088Z   26264.40370244  .00000474  00000+0  91198-4 0  99902 63747  51.9043 302.6771 0000502  86.0144 274.0876 14.79913896 76809

JSON: /api/v1/satellites/63747 · /tle

For live sub-satellite position, see the globe view (requires WebGL).

§ Visibility from observer

Set your observer location to see the next 7 days of passes ≥ 10°. The values pass through the URL so the page stays shareable.

No JS? Fill the form by hand. The geolocation button needs JavaScript.